Regional Weather Roundup
Issued by NWS

Home | Current Version | Previous Version | Text Only | Print | Product List | Glossary Off
Versions: 1 2 3 4 5 6 7 8 9 10 11 12 13 14 15 16 17 18 19 20 21 22 23 24 25 26 27 28 29 30 31 32 33 34 35 36 37 38 39 40 41 42 43 44 45 46 47 48 49 50

194
ASUS45 KTFX 172310
RWRMT
MONTANA REGIONAL WEATHER ROUNDUP
NATIONAL WEATHER SERVICE GREAT FALLS MT
400 PM MST TUE JAN 17 2017

NOTE: "FAIR" INDICATES FEW OR NO CLOUDS BELOW 12000 FEET WITH NO
SIGNIFICANT WEATHER AND/OR OBSTRUCTIONS TO VISIBILITY.

MTZ001>007-043-180000-
WEST OF THE DIVIDE

CITY           SKY/WX    TMP DP  RH WIND       PRES   REMARKS
KALISPELL      CLOUDY    20  15  81 CALM      29.98F
MISSOULA       CLEAR     15  10  80 CALM      30.01F
BUTTE          CLOUDY    28  13  53 CALM      29.96S
MULLAN PASS    CLOUDY    30  19  63 S8        29.87F WCI  22
ANACONDA         N/A     43  12  28 SE21G28   29.92R
DEER LODGE       N/A     23  12  63 S7        29.92F WCI  15
EUREKA           N/A     30  19  64 S7        29.91F WCI  23
HAMILTON         N/A     18   7  62 N9        29.95R WCI   6
PLAINS           N/A     21   9  60 MISG      30.00F
RONAN            N/A     14   9  81 CALM      30.00S
$$

MTZ008-052>055-180000-
SOUTHWEST MONTANA

CITY           SKY/WX    TMP DP  RH WIND       PRES   REMARKS
BOZEMAN        CLOUDY    24  13  62 CALM      29.99F
DILLON         CLOUDY    33  16  49 SW18      29.98F WCI  22
W YELLOWSTONE  CLOUDY    19   9  63 NE5       30.13S
ENNIS          CLEAR     30  18  59 SE23G33   30.04S WCI  17
TWIN BRIDGES     N/A     29  11  47 SE6       30.00F WCI  23
$$

MTZ009-010-012-014-046-048-049-054-180000-
EAST SLOPES AND CENTRAL MONTANA

CITY           SKY/WX    TMP DP  RH WIND       PRES   REMARKS
CUT BANK       PTCLDY    44  26  49 SW23      29.74R
GREAT FALLS    CLOUDY    45  23  42 SW24G31   29.78F
MALMSTROM AFB  CLOUDY    44  28  54 SW24      29.78S
HELENA         CLOUDY    21   9  59 CALM      29.95F
AUGUSTA          N/A     39  28  66 S10       29.78S WCI  32
BOWMANS CRNR     N/A     35  18  50 S25       29.81R WCI  22
CHOTEAU          N/A     41  30  65 SW9       29.78S
CONRAD           N/A     43  34  70 SW12      29.79S
FAIRFIELD        N/A     38  23  53 S26       29.76R WCI  27
POWER            N/A     39  24  53 S20       29.76S WCI  30
RAYNESFORD       N/A     54  30  40 S5        29.77F
ULM              N/A     40  25  54 MISG      29.82S
$$

MTZ011-013-016-021-045-047-050-051-180000-
NORTH CENTRAL MONTANA

CITY           SKY/WX    TMP DP  RH WIND       PRES   REMARKS
HAVRE          CLEAR     42  29  59 SW16      29.73R
LEWISTOWN      CLOUDY    42  30  62 SW17      29.81F
N BAR RANCH      N/A     52  30  43 W12G20    29.82R
CHINOOK          N/A     48  28  46 W20       29.68S
DENTON           N/A     44  31  62 S24G32    29.74F
FORT BENTON      N/A     50  28  43 MISG      29.76S
GEYSER           N/A     48  31  52 W22       29.75F
GRASS RANGE      N/A     47  31  53 W24       29.74S
JUDITH GAP       N/A     38  30  74 SW5       29.84R
ROY              N/A     50  33  51 MISG      29.70F
STANFORD         N/A     49  32  52 SW14      29.78F
WINIFRED         N/A     47  31  53 SW12      29.77S
$$

MTZ017>020-022>027-061-062-180000-
NORTHEAST MONTANA

CITY           SKY/WX    TMP DP  RH WIND       PRES   REMARKS
GLASGOW        CLOUDY    34  23  64 S8        29.70S WCI  27
JORDAN           N/A     41  30  65 NW3       29.74S
SIDNEY         CLOUDY    29  21  72 SW22      29.73S WCI  15
WOLF POINT     CLOUDY    29  21  72 W3        29.72S
PLENTYWOOD       N/A     39  27  60 SW6       29.65S
POPLAR           N/A     30  19  64 W3        29.72S
SCOBEY           N/A     38  21  50 CALM      29.67R
$$

MTZ028>42-056>058-180000-
SOUTHCENTRAL AND SOUTHEAST MONTANA

CITY           SKY/WX    TMP DP  RH WIND       PRES   REMARKS
BAKER          CLOUDY    32  19  58 W18       29.81R WCI  20
BILLINGS       CLOUDY    37  15  40 SW24      29.88R WCI  26
LIVINGSTON     CLOUDY    44  18  35 SW33G41   29.92S
MILES CITY     CLOUDY    29  18  63 S10       29.81F WCI  20
BIG TIMBER     CLEAR     45  19  36 W30       29.89S
EKALAKA          N/A     38  14  37 S13       29.82S WCI  30
FORSYTH          N/A     43  21  42 SW8       29.81S
HARLOWTON        N/A     43  20  40 NW6       29.86S
LAUREL           N/A     36  15  42 S15       29.89R WCI  27
$$

REGIONAL REPORTS...DAKOTAS

CITY           SKY/WX    TMP DP  RH WIND       PRES   REMARKS
WILLISTON      CLOUDY    29  21  72 SW18      29.71R WCI  16
MINOT          CLOUDY    33  21  61 SW18      29.65S WCI  22
DICKINSON      CLOUDY    29  21  72 SW13      29.75R WCI  19
BEACH            N/A     32  19  59 W17       29.80R WCI  21
CROSBY           N/A     30  25  80 SW24      29.65R WCI  16
TIOGA            N/A     28  25  86 SW22      29.68S WCI  15
WATFORD CITY     N/A     32  23  69 SW17      29.72S WCI  21
BISMARCK       CLOUDY    31  18  58 S3        29.79F
GRAND FORKS    CLOUDY    22  16  78 S18       29.78F WCI   7
FARGO          CLOUDY    22  17  81 S13       29.88S WCI  10
BUFFALO SD       N/A     34  22  61 W14       29.77R WCI  25
RAPID CITY     CLOUDY    34  23  64 CALM      29.88R
$$

REGIONAL REPORTS...WYOMING/IDAHO/WASHINGTON

CITY           SKY/WX    TMP DP  RH WIND       PRES   REMARKS
GILLETTE       CLOUDY    42  24  49 SW20      29.89S
SHERIDAN       CLOUDY    30  19  63 S3        29.87F
BUFFALO WY     CLOUDY    42  22  44 S3        29.91S
CODY           CLOUDY    31  17  56 CALM      29.94F
YELLOWSTONE LA   N/A     11   5  77 CALM      30.12S
IDAHO FALLS    CLOUDY    11   6  81 N6        30.23S WCI   1
SALMON         CLOUDY     1  -6  71 CALM      30.26F
BOISE          MOSUNNY   16   6  65 W5        30.27R
SPOKANE        CLOUDY    23  19  85 N6        29.91F WCI  16
$$

REGIONAL REPORTS...ALBERTA

CITY           SKY/WX    TMP DP  RH WIND       PRES   REMARKS
EDMONTON       MOCLDY    45  28  53 SW5       29.34R
CALGARY        PTCLDY    46  32  57 S8        29.49R
LETHBRIDGE     MOCLDY    41  32  70 W25       29.66R
MEDICINE HAT   MOCLDY    43  30  61 SW30G40   29.53R
WATERTON GATE    N/A     46  32  57 SW26G43     N/A
CARDSTON         N/A     48  30  49 W9          N/A
MILK RIVER       N/A     45  28  53 SW21G32     N/A
$$

REGIONAL REPORTS...SASKATCHEWAN

CITY           SKY/WX    TMP DP  RH WIND       PRES   REMARKS
SWIFT CURRENT  CLEAR     39  34  81 SW8       29.54F
REGINA         MOCLDY    36  32  87 W9        29.53R WCI  29
SASKATOON      MOCLDY    37  32  81 SW8       29.48R WCI  31
CYPRESS HILLS    N/A     39  27  60 SW20G28     N/A  WCI  30
VAL MARIE        N/A     39  28  65 W23         N/A  WCI  29
ROCKGLEN         N/A     37  28  70 W21         N/A  WCI  27
ASSINIBOIA       N/A     37  32  81 S7          N/A
$$




USA.gov is the U.S. government's official web portal to all federal, state and local government web resources and services.